User: anonymous   Login
Location: Wildlife_Club
(35.6000°N, 81.4330°W)
Time: 18:33:43
(UTC-04:00)
Language:

Cosmos 1782 - Orbit

View from above orbital plane
View from above orbital plane
View from above satellite
View from above satellite

Ground track
Ground track

The orbit data is extracted from the following two-line orbital elements,

1 16986U 86074A   17177.27956513 +.00000215 +00000-0 +12584-4 0  9998
2 16986 082.5067 112.3894 0009709 321.3417 038.7115 15.06566129651046
Epoch (UTC): 26 June 2017 06:42:34
Eccentricity: 0.0009709
inclination: 82.5067°
perigee height: 540 km
apogee height: 553 km
right ascension of ascending node: 112.3894°
argument of perigee: 321.3417°
revolutions per day: 15.06566129
mean anomaly at epoch: 38.7115°
orbit number at epoch: 65104

The dashed part of the orbit path shows where the satellite is in the earth's shadow,  

DLR